IGO128 VEPT-VNKT

Flight info

Callsign IGO128
Flight time 0h 40m
Altitude 29000
Route KABEM/N0391F280 DCT SEETA DCT LALBA/N0382F270 DCT KT955 DCT KT660/N0382F260 DCT IGRIS IGRIS2R
Aircraft A20N/M-SDE2E3FGHIRWXY/LB1

Departure

Time 2026-05-04 19:53
Airport Jay Prakash Narayan Airport (VEPT)

Arrival

Time 2026-05-04 20:33
Airport Tribhuvan International Airport (VNKT)
Time Latitude Longitude Altitude Speed Heading
2026-05-04 19:29 25.59404 85.09106 184 ft 0 kts 64°
2026-05-04 19:47 25.59404 85.09112 184 ft 3 kts 77°
2026-05-04 19:47 25.59383 85.09139 183 ft 8 kts 134°
2026-05-04 19:47 25.59305 85.09178 183 ft 16 kts 159°
2026-05-04 19:48 25.59225 85.09164 184 ft 9 kts 250°
2026-05-04 19:48 25.59196 85.09079 183 ft 15 kts 248°
2026-05-04 19:48 25.59145 85.08943 184 ft 22 kts 251°
2026-05-04 19:48 25.59082 85.08759 183 ft 28 kts 248°
2026-05-04 19:49 25.59007 85.08549 184 ft 30 kts 250°
2026-05-04 19:49 25.58926 85.08328 182 ft 32 kts 247°
2026-05-04 19:49 25.58842 85.08095 181 ft 33 kts 248°
2026-05-04 19:49 25.58762 85.07892 183 ft 14 kts 231°
2026-05-04 19:50 25.58744 85.07872 183 ft 2 kts 217°
2026-05-04 19:50 25.58730 85.07860 183 ft 6 kts 221°
2026-05-04 19:50 25.58728 85.07858 183 ft 1 kts 223°
2026-05-04 19:50 25.58717 85.07822 191 ft 9 kts 290°
2026-05-04 19:51 25.58744 85.07828 195 ft 6 kts 53°
2026-05-04 19:51 25.58761 85.07864 183 ft 0 kts 64°
2026-05-04 19:52 25.58768 85.07884 183 ft 15 kts 67°
2026-05-04 19:52 25.58929 85.08330 182 ft 106 kts 68°
2026-05-04 19:52 25.59299 85.09342 234 ft 171 kts 68°
2026-05-04 19:53 25.59763 85.10611 912 ft 186 kts 69°
2026-05-04 19:53 25.60293 85.11939 1576 ft 191 kts 66°
2026-05-04 19:53 25.61152 85.13173 1852 ft 210 kts 47°
2026-05-04 19:53 25.62378 85.14229 2208 ft 241 kts 40°
2026-05-04 19:54 25.63784 85.15407 2766 ft 258 kts 48°
2026-05-04 19:54 25.64939 85.16858 3946 ft 240 kts 52°
2026-05-04 19:54 25.66000 85.18190 4847 ft 233 kts 48°
2026-05-04 19:54 25.67224 85.19492 5407 ft 256 kts 42°
2026-05-04 19:55 25.68682 85.20794 5734 ft 279 kts 38°
2026-05-04 19:55 25.70274 85.22065 5897 ft 282 kts 36°
2026-05-04 19:55 25.71888 85.23297 5997 ft 283 kts 35°
2026-05-04 19:55 25.73517 85.24526 6001 ft 283 kts 35°
2026-05-04 19:56 25.75139 85.25755 6001 ft 282 kts 35°
2026-05-04 19:56 25.76759 85.26989 6066 ft 284 kts 36°
2026-05-04 19:56 25.78371 85.28224 6537 ft 286 kts 36°
2026-05-04 19:56 25.79994 85.29473 7575 ft 281 kts 34°
2026-05-04 19:57 25.81603 85.30713 8520 ft 284 kts 34°
2026-05-04 19:57 25.83235 85.31970 9414 ft 287 kts 33°
2026-05-04 19:57 25.84884 85.33241 10274 ft 290 kts 32°
2026-05-04 19:57 25.86559 85.34532 11052 ft 295 kts 32°
2026-05-04 19:58 25.88261 85.35842 11846 ft 300 kts 32°
2026-05-04 19:58 25.89992 85.37178 12641 ft 305 kts 31°
2026-05-04 19:58 25.91746 85.38532 13456 ft 309 kts 31°
2026-05-04 19:58 25.93529 85.39907 14174 ft 315 kts 31°
2026-05-04 19:59 25.95326 85.41291 14818 ft 322 kts 30°
2026-05-04 19:59 25.97135 85.42685 15446 ft 328 kts 30°
2026-05-04 19:59 25.99029 85.44145 16100 ft 335 kts 30°
2026-05-04 19:59 26.00966 85.45639 16743 ft 341 kts 30°
2026-05-04 20:00 26.02935 85.47158 17384 ft 347 kts 30°
2026-05-04 20:00 26.04937 85.48704 18010 ft 354 kts 30°
2026-05-04 20:00 26.06968 85.50273 18591 ft 359 kts 30°
2026-05-04 20:00 26.09034 85.51869 19175 ft 363 kts 30°
2026-05-04 20:01 26.11123 85.53482 19689 ft 369 kts 30°
2026-05-04 20:01 26.13246 85.55123 19921 ft 371 kts 30°
2026-05-04 20:01 26.15396 85.56785 20024 ft 386 kts 30°
2026-05-04 20:01 26.17671 85.58539 20035 ft 408 kts 31°
2026-05-04 20:02 26.20058 85.60384 20036 ft 423 kts 31°
2026-05-04 20:02 26.22475 85.62262 20035 ft 424 kts 31°
2026-05-04 20:02 26.24896 85.64145 20039 ft 423 kts 31°
2026-05-04 20:02 26.27307 85.66020 20040 ft 423 kts 31°
2026-05-04 20:03 26.29687 85.67870 20039 ft 423 kts 31°
2026-05-04 20:03 26.32130 85.69768 20041 ft 423 kts 31°
2026-05-04 20:03 26.34518 85.71624 20043 ft 423 kts 31°
2026-05-04 20:03 26.36927 85.73498 20043 ft 422 kts 31°
2026-05-04 20:04 26.39342 85.75376 20047 ft 423 kts 31°
2026-05-04 20:04 26.41763 85.77261 20050 ft 423 kts 31°
2026-05-04 20:04 26.44176 85.79140 20048 ft 423 kts 31°
2026-05-04 20:04 26.46590 85.81022 20052 ft 423 kts 31°
2026-05-04 20:05 26.48994 85.82896 20052 ft 423 kts 31°
2026-05-04 20:05 26.51370 85.84749 20053 ft 423 kts 31°
2026-05-04 20:05 26.53825 85.86665 20054 ft 423 kts 31°
2026-05-04 20:05 26.56203 85.88523 20054 ft 423 kts 31°
2026-05-04 20:06 26.58610 85.90404 20058 ft 423 kts 31°
2026-05-04 20:06 26.61038 85.92277 20058 ft 422 kts 27°
2026-05-04 20:06 26.63679 85.93612 20062 ft 413 kts 11°
2026-05-04 20:06 26.66477 85.94078 20064 ft 403 kts 354°
2026-05-04 20:07 26.69208 85.93660 20069 ft 392 kts 338°
2026-05-04 20:07 26.71666 85.92467 20072 ft 385 kts 327°
2026-05-04 20:07 26.74045 85.91066 20071 ft 385 kts 327°
2026-05-04 20:07 26.76443 85.89724 20074 ft 386 kts 329°
2026-05-04 20:08 26.78878 85.88444 20076 ft 387 kts 330°
2026-05-04 20:08 26.81324 85.87211 20076 ft 387 kts 331°
2026-05-04 20:08 26.83798 85.85990 20081 ft 387 kts 331°
2026-05-04 20:08 26.86237 85.84794 20086 ft 387 kts 331°
2026-05-04 20:09 26.88706 85.83585 20080 ft 387 kts 331°
2026-05-04 20:09 26.91178 85.82374 20087 ft 387 kts 331°
2026-05-04 20:09 26.93730 85.81377 20092 ft 392 kts 341°
2026-05-04 20:09 26.96449 85.80884 20099 ft 398 kts 351°
2026-05-04 20:10 26.99237 85.80919 20104 ft 401 kts 359°
2026-05-04 20:10 27.01975 85.81121 20072 ft 386 kts 358°
2026-05-04 20:10 27.04598 85.81304 19961 ft 372 kts 358°
2026-05-04 20:10 27.07140 85.81475 19788 ft 360 kts 358°
2026-05-04 20:11 27.09603 85.81635 19419 ft 357 kts 358°
2026-05-04 20:11 27.12103 85.81794 19012 ft 354 kts 358°
2026-05-04 20:11 27.14514 85.81948 18626 ft 351 kts 358°
2026-05-04 20:11 27.16939 85.82104 18241 ft 348 kts 359°
2026-05-04 20:12 27.19352 85.82262 17831 ft 344 kts 359°
2026-05-04 20:12 27.21731 85.82420 17422 ft 341 kts 359°
2026-05-04 20:12 27.24084 85.82576 17044 ft 337 kts 359°
2026-05-04 20:12 27.26411 85.82729 16676 ft 336 kts 359°
2026-05-04 20:13 27.28744 85.82883 16308 ft 333 kts 359°
2026-05-04 20:13 27.31037 85.83035 15952 ft 330 kts 359°
2026-05-04 20:13 27.33317 85.83186 15585 ft 326 kts 359°
2026-05-04 20:13 27.35569 85.83335 15241 ft 323 kts 359°
2026-05-04 20:14 27.37810 85.83483 14886 ft 322 kts 359°
2026-05-04 20:14 27.40132 85.83629 14549 ft 350 kts 360°
2026-05-04 20:14 27.42590 85.83787 14355 ft 356 kts
2026-05-04 20:14 27.45052 85.83954 14137 ft 352 kts
2026-05-04 20:15 27.47483 85.84120 13714 ft 349 kts
2026-05-04 20:15 27.49871 85.84258 13142 ft 347 kts 356°
2026-05-04 20:15 27.52095 85.83830 12594 ft 342 kts 338°
2026-05-04 20:15 27.54127 85.82513 12158 ft 335 kts 317°
2026-05-04 20:16 27.55611 85.80505 11999 ft 336 kts 299°
2026-05-04 20:16 27.56467 85.78057 11976 ft 337 kts 287°
2026-05-04 20:16 27.57171 85.75530 11982 ft 337 kts 287°
2026-05-04 20:16 27.57871 85.73014 11975 ft 336 kts 287°
2026-05-04 20:17 27.58572 85.70493 11977 ft 337 kts 287°
2026-05-04 20:17 27.58969 85.67895 11980 ft 338 kts 269°
2026-05-04 20:17 27.58484 85.65314 11980 ft 340 kts 248°
2026-05-04 20:17 27.57174 85.63121 11905 ft 337 kts 226°
2026-05-04 20:18 27.55287 85.61695 11784 ft 328 kts 204°
2026-05-04 20:18 27.53097 85.61212 11651 ft 317 kts 181°
2026-05-04 20:18 27.50940 85.61434 11351 ft 307 kts 173°
2026-05-04 20:18 27.48844 85.61779 10959 ft 301 kts 174°
2026-05-04 20:19 27.46775 85.62017 10801 ft 302 kts 179°
2026-05-04 20:19 27.44668 85.61961 10749 ft 302 kts 187°
2026-05-04 20:19 27.42607 85.61581 10745 ft 298 kts 195°
2026-05-04 20:19 27.40621 85.60940 10739 ft 297 kts 201°
2026-05-04 20:20 27.38692 85.60065 10729 ft 298 kts 206°
2026-05-04 20:20 27.36859 85.58985 10729 ft 297 kts 212°
2026-05-04 20:20 27.35139 85.57716 10716 ft 296 kts 218°
2026-05-04 20:20 27.33534 85.56265 10715 ft 295 kts 223°
2026-05-04 20:21 27.32068 85.54651 10715 ft 294 kts 229°
2026-05-04 20:21 27.30749 85.52889 10712 ft 293 kts 234°
2026-05-04 20:21 27.28236 85.49292 10696 ft 294 kts 233°
2026-05-04 20:22 27.26963 85.47494 10699 ft 294 kts 233°
2026-05-04 20:22 27.25693 85.45684 10686 ft 294 kts 233°
2026-05-04 20:22 27.24431 85.43876 10696 ft 294 kts 233°
2026-05-04 20:22 27.23167 85.42059 10687 ft 295 kts 233°
2026-05-04 20:23 27.21907 85.40246 10675 ft 295 kts 233°
2026-05-04 20:23 27.20645 85.38428 10676 ft 295 kts 233°
2026-05-04 20:23 27.19398 85.36633 10674 ft 295 kts 233°
2026-05-04 20:23 27.18142 85.34806 10674 ft 295 kts 236°
2026-05-04 20:24 27.17145 85.32795 10672 ft 293 kts 249°
2026-05-04 20:24 27.16551 85.30622 10567 ft 290 kts 260°
2026-05-04 20:24 27.16367 85.28371 10401 ft 289 kts 271°
2026-05-04 20:24 27.16592 85.26122 10369 ft 291 kts 283°
2026-05-04 20:25 27.17208 85.23960 10365 ft 292 kts 294°
2026-05-04 20:25 27.18199 85.21971 10364 ft 292 kts 305°
2026-05-04 20:25 27.19507 85.20266 10368 ft 292 kts 316°
2026-05-04 20:25 27.21112 85.18871 10370 ft 293 kts 328°
2026-05-04 20:26 27.22940 85.17865 10367 ft 293 kts 340°
2026-05-04 20:26 27.24911 85.17294 10375 ft 294 kts 351°
2026-05-04 20:26 27.26951 85.17186 10378 ft 295 kts
2026-05-04 20:26 27.28960 85.17542 10383 ft 296 kts 14°
2026-05-04 20:27 27.30898 85.18338 10387 ft 297 kts 22°
2026-05-04 20:27 27.32802 85.19226 10390 ft 296 kts 21°
2026-05-04 20:27 27.34710 85.20098 10263 ft 297 kts 21°
2026-05-04 20:27 27.36604 85.20956 10032 ft 295 kts 21°
2026-05-04 20:28 27.38528 85.21824 9792 ft 294 kts 21°
2026-05-04 20:28 27.40428 85.22678 9558 ft 293 kts 21°
2026-05-04 20:28 27.42329 85.23497 9312 ft 289 kts 20°
2026-05-04 20:28 27.44176 85.24338 9066 ft 282 kts 22°
2026-05-04 20:29 27.45939 85.25140 8960 ft 263 kts 21°
2026-05-04 20:29 27.47548 85.25870 8957 ft 241 kts 21°
2026-05-04 20:29 27.49109 85.26578 8941 ft 246 kts 21°
2026-05-04 20:29 27.50651 85.27278 8934 ft 234 kts 21°
2026-05-04 20:30 27.52116 85.27943 8937 ft 218 kts 21°
2026-05-04 20:30 27.53520 85.28581 8953 ft 219 kts 21°
2026-05-04 20:30 27.54941 85.29226 8946 ft 218 kts 21°
2026-05-04 20:30 27.56325 85.29854 8967 ft 206 kts 21°
2026-05-04 20:31 27.57595 85.30432 8946 ft 187 kts 21°
2026-05-04 20:31 27.58754 85.30958 8838 ft 175 kts 21°
2026-05-04 20:31 27.59873 85.31467 8528 ft 174 kts 21°
2026-05-04 20:31 27.61033 85.31994 8011 ft 186 kts 21°
2026-05-04 20:32 27.62284 85.32563 7282 ft 202 kts 21°
2026-05-04 20:32 27.63610 85.33167 6659 ft 209 kts 21°
2026-05-04 20:32 27.64944 85.33773 6090 ft 203 kts 21°
2026-05-04 20:32 27.66213 85.34351 5647 ft 185 kts 21°
2026-05-04 20:33 27.67333 85.34863 5133 ft 173 kts 22°
2026-05-04 20:33 27.68506 85.35390 4374 ft 180 kts 21°
2026-05-04 20:33 27.69494 85.35838 4387 ft 114 kts 21°
2026-05-04 20:33 27.69949 85.36045 4401 ft 33 kts 21°
2026-05-04 20:34 27.70160 85.36114 4415 ft 28 kts 346°
2026-05-04 20:34 27.70197 85.36077 4409 ft 11 kts 277°
2026-05-04 20:34 27.70154 85.36022 4357 ft 0 kts 207°
2026-05-04 20:35 27.70152 85.36020 4353 ft 2 kts 207°
2026-05-04 20:35 27.70111 85.36000 4375 ft 11 kts 202°
2026-05-04 20:35 27.70014 85.35959 4356 ft 19 kts 200°
2026-05-04 20:35 27.69913 85.35915 4355 ft 0 kts 201°
2026-05-04 20:36 27.69929 85.35895 4356 ft 4 kts 13°
2026-05-04 20:36 27.69959 85.35901 4358 ft 5 kts 350°
2026-05-04 20:36 27.69978 85.35874 4362 ft 5 kts 294°
2026-05-04 20:36 27.69986 85.35855 4366 ft 0 kts 294°